Home   Weather   Galapagos Islands   Past weeks

Flag for Ecuador Past Weather in Galapagos Islands, Ecuador — Yesterday and Last 2 Weeks

Now
81 °F

Partly sunny.


Feels Like: 83 °F
Forecast: 71 / 76 °F
Wind: 9 mph from Southwest

Location: Manta Airport

Current Time: Dec 3, 2016 at 6:15:21 pm

Latest Report: Dec 3, 2016 at 5:00 pm


Visibility: N/A

Pressure: 29.86 "Hg

Humidity: 66%

Dew Point: 68 °F

Location of Galapagos IslandsLocation

Past Weather in Galapagos Islands — Graph

°F

Galapagos Islands Temperature Yesterday

Maximum temperature yesterday: 91 °F (at 1:00 pm)
Minimum temperature yesterday: 72 °F (at 12:00 am)
Average temperature yesterday: 78 °F

High & Low Weather Summary for the Past Weeks

 TemperatureHumidityPressure
High93 °F (Dec 3, 2:00 pm)94% (Nov 19, 12:00 am)29.98 "Hg (Nov 19, 12:00 am)
Low63 °F (Nov 27, 5:00 am)44% (Dec 3, 2:00 pm)29.77 "Hg (Nov 21, 3:00 pm)
Average75 °F82%29.88 "Hg
* Reported Nov 18 5:00 pm — Dec 3 5:00 pm, Galapagos Islands, Weather by CustomWeather, © 2016

Note: Actual official high and low records may vary slightly from our data, if they occured in-between our weather recording intervals... More about our weather records

Advertising

Galapagos Islands Weather History for the Previous 24 Hours

Scroll right to see more
 ConditionsComfort  
Time TempWeatherWind HumidityBarometerVisibility
5:00 pm
Sat, Dec 3
81 °FPartly sunny.9 mph66%29.86 "HgN/A
4:00 pm84 °FPartly sunny.12 mph58%29.83 "HgN/A
3:00 pm88 °FOvercast.9 mph49%29.80 "HgN/A
2:00 pm93 °FPassing clouds.12 mph44%29.80 "HgN/A
12:00 pm86 °FScattered clouds.9 mph59%29.86 "HgN/A
11:00 am86 °FScattered clouds.8 mph59%29.92 "HgN/A
10:00 am86 °FScattered clouds.9 mph59%29.92 "HgN/A
9:00 am77 °FScattered clouds.7 mph79%29.95 "HgN/A
8:00 am77 °FPartly sunny.8 mph79%29.95 "HgN/A
7:00 am75 °FPartly sunny.5 mph83%29.92 "HgN/A
6:00 am75 °FPartly sunny.3 mph83%29.89 "HgN/A
5:00 am75 °FPassing clouds.6 mph83%29.89 "HgN/A
4:00 am73 °FPassing clouds.7 mph89%29.86 "HgN/A
3:00 am73 °FPassing clouds.12 mph89%29.83 "HgN/A
2:00 am75 °FOvercast.9 mph83%29.86 "HgN/A
1:00 am75 °FOvercast.6 mph83%29.86 "HgN/A
12:00 am75 °FMild.7 mph83%29.89 "HgN/A
11:00 pm
Fri, Dec 2
77 °FOvercast.9 mph79%29.92 "HgN/A
10:00 pm77 °FSmoke.5 mph79%29.92 "HgN/A
9:00 pm77 °FPassing clouds.10 mph79%29.92 "HgN/A
8:00 pm77 °FClear.13 mph79%29.92 "Hg10 mi
7:00 pm77 °FClear.12 mph79%29.89 "Hg10 mi
6:00 pm79 °FPassing clouds.9 mph74%29.86 "HgN/A
Weather by CustomWeather, © 2016

See weather overviewHow to use our weather pages